GW4266 Weather Reports


time (UTC)temp
C
wind
direction
speed
KPH
gust
KPH
rain 1hr
cm
rain 24hr
cm
rain mn
cm
humidity
%
barometer
mb
20260507000222 17 57 3.2 8.0 0.00 0.00 0.00 84 1016.8
20260506235719 17 43 8.0 12.9 0.00 0.00 0.00 84 1016.8
20260506235214 17 58 4.8 9.7 0.00 0.00 0.00 84 1016.9
20260506234711 17 333 0.0 6.4 0.00 0.00 0.00 84 1016.5
20260506234209 17 329 3.2 11.3 0.00 0.00 0.00 84 1016.6
20260506233706 17 25 3.2 3.2 0.00 0.00 0.00 85 1016.8
20260506233202 17 53 3.2 9.7 0.00 0.00 0.00 84 1017.0
20260506232659 16 50 0.0 8.0 0.00 0.00 0.00 84 1016.6
20260506232154 16 85 4.8 12.9 0.00 0.00 0.00 84 1016.6
20260506231651 17 38 3.2 9.7 0.00 0.00 0.00 84 1016.5
20260506231150 17 353 4.8 4.8 0.00 0.00 0.00 84 1016.4
20260506230646 16 22 0.0 11.3 0.00 0.00 0.00 84 1016.6
20260506230143 16 4 12.9 12.9 0.00 0.00 0.00 85 1016.6
20260506225640 16 45 3.2 9.7 0.00 0.00 0.00 85 1016.5
20260506225137 16 3 4.8 14.5 0.00 0.00 0.00 84 1016.8
20260506224633 16 29 0.0 14.5 0.00 0.00 0.00 84 1016.8
20260506224130 16 343 0.0 9.7 0.00 0.00 0.00 85 1016.7
20260506223626 16 0 0.0 14.5 0.00 0.00 0.00 84 1016.7
20260506223122 16 38 9.7 14.5 0.00 0.00 0.00 84 1016.6
20260506222620 16 0 6.4 14.5 0.00 0.00 0.00 84 1016.5
20260506222116 16 58 8.0 8.0 0.00 0.00 0.00 84 1016.5
20260506221613 17 9 9.7 11.3 0.00 0.00 0.00 83 1016.4
20260506221111 17 72 4.8 12.9 0.00 0.00 0.00 83 1016.5
20260506220607 17 58 3.2 14.5 0.00 0.00 0.00 83 1016.5
20260506215559 17 55 9.7 16.1 0.00 0.00 0.00 82 1016.5
20260506215055 17 19 8.0 17.7 0.00 0.00 0.00 82 1016.5
20260506214552 17 353 9.7 16.1 0.00 0.00 0.00 82 1016.1
20260506214049 17 356 8.0 11.3 0.00 0.00 0.00 82 1016.4
20260506213548 17 47 9.7 12.9 0.00 0.00 0.00 83 1016.5
20260506213045 17 42 8.0 14.5 0.00 0.00 0.00 82 1016.4
20260506212541 17 34 3.2 14.5 0.00 0.00 0.00 82 1016.1
20260506212036 17 280 3.2 17.7 0.00 0.00 0.00 82 1016.3
20260506211532 17 24 3.2 12.9 0.00 0.00 0.00 82 1016.4
20260506211030 17 22 9.7 12.9 0.00 0.00 0.00 81 1016.5
20260506210526 17 20 6.4 20.9 0.00 0.00 0.00 82 1016.4
20260506210023 18 18 6.4 20.9 0.00 0.00 0.00 81 1016.3
20260506205520 18 8 4.8 14.5 0.00 0.00 0.00 81 1016.3
20260506205015 18 15 8.0 17.7 0.00 0.00 0.00 81 1016.8
20260506204513 19 349 4.8 12.9 0.00 0.00 0.00 79 1016.5
20260506204010 18 50 12.9 17.7 0.00 0.00 0.00 80 1016.5
20260506203508 18 43 4.8 11.3 0.00 0.00 0.00 81 1016.5
20260506202959 19 354 4.8 12.9 0.00 0.00 0.00 80 1016.6
20260506202456 19 317 4.8 11.3 0.00 0.00 0.00 80 1016.5
20260506201951 20 286 8.0 11.3 0.00 0.00 0.00 80 1016.8
20260506201450 20 249 3.2 14.5 0.00 0.00 0.00 79 1016.3
20260506200946 20 34 0.0 9.7 0.00 0.00 0.00 80 1016.2
20260506200442 20 332 6.4 14.5 0.00 0.00 0.00 80 1016.2
20260506195938 20 52 4.8 9.7 0.00 0.00 0.00 80 1016.0
20260506195436 21 22 4.8 9.7 0.00 0.00 0.00 80 1016.2
20260506194932 20 29 9.7 12.9 0.00 0.00 0.00 80 1016.2
20260506194430 21 53 3.2 9.7 0.00 0.00 0.00 81 1016.1
20260506193926 20 275 0.0 14.5 0.00 0.00 0.00 82 1016.1
20260506193424 20 80 0.0 14.5 0.00 0.00 0.00 81 1016.1
20260506192920 20 18 0.0 20.9 0.00 0.00 0.00 81 1015.9
20260506192417 21 303 3.2 12.9 0.00 0.00 0.00 82 1015.9
20260506191914 20 347 8.0 19.3 0.00 0.00 0.00 83 1016.0
20260506191410 21 284 4.8 16.1 0.00 0.00 0.00 83 1015.8
20260506190908 21 250 4.8 11.3 0.00 0.00 0.00 84 1016.1
20260506190404 21 270 6.4 12.9 0.00 0.00 0.00 83 1016.0
20260506185901 22 28 9.7 11.3 0.00 0.00 0.00 82 1016.1
20260506185358 24 356 0.0 6.4 0.00 0.00 0.00 77 1016.1
20260506184855 25 344 8.0 14.5 0.00 0.00 0.00 75 1016.0
20260506184352 25 19 3.2 8.0 0.00 0.00 0.00 73 1015.8
20260506183849 25 14 9.7 9.7 0.00 0.00 0.00 74 1015.8
20260506183344 26 7 8.0 11.3 0.00 0.00 0.00 73 1015.7
20260506182842 25 76 0.0 8.0 0.00 0.00 0.00 76 1015.9
20260506182338 25 282 0.0 11.3 0.00 0.00 0.00 74 1015.6
20260506181836 24 284 1.6 9.7 0.00 0.00 0.00 75 1015.6
20260506181334 25 5 3.2 9.7 0.00 0.00 0.00 72 1015.6
20260506180831 24 0 0.0 4.8 0.00 0.00 0.00 73 1015.9
20260506180327 25 336 4.8 8.0 0.00 0.00 0.00 74 1015.7
20260506175823 25 72 0.0 4.8 0.00 0.00 0.00 73 1015.6
20260506175320 25 105 1.6 8.0 0.00 0.00 0.00 73 1015.9
20260506174818 24 50 0.0 6.4 0.00 0.00 0.00 75 1015.5
20260506174315 25 100 0.0 3.2 0.00 0.00 0.00 75 1015.6
20260506173812 23 98 0.0 0.0 0.00 0.00 0.00 76 1015.6
20260506173309 22 82 4.8 6.4 0.00 0.00 0.00 78 1015.5
20260506172806 22 90 4.8 9.7 0.00 0.00 0.00 78 1015.5
20260506172306 22 84 1.6 6.4 0.00 0.00 0.00 79 1015.7
20260506171800 22 356 0.0 8.0 0.00 0.00 0.00 78 1015.6
20260506171257 22 153 1.6 6.4 0.00 0.00 0.00 80 1015.8
20260506170755 21 106 6.4 6.4 0.00 0.00 0.00 80 1015.8
20260506170251 21 338 0.0 4.8 0.00 0.00 0.00 83 1015.6
20260506165749 20 95 4.8 6.4 0.00 0.00 0.00 83 1015.8
20260506165246 20 87 4.8 11.3 0.00 0.00 0.00 85 1015.9
20260506164743 19 144 0.0 14.5 0.00 0.00 0.00 86 1016.1
20260506164240 20 351 0.0 11.3 0.00 0.00 0.00 87 1016.0
20260506163737 18 34 4.8 16.1 0.00 0.00 0.00 86 1016.2
20260506163231 18 61 4.8 9.7 0.00 0.00 0.00 88 1016.4
20260506162728 18 7 8.0 8.0 0.00 0.00 0.00 88 1016.4
20260506162226 17 44 6.4 11.3 0.00 0.00 0.00 89 1016.8
20260506161723 17 0 0.0 14.5 0.00 0.00 0.00 90 1016.9
20260506161220 17 5 6.4 22.5 0.00 0.00 0.00 90 1017.1
20260506160718 18 6 1.6 11.3 0.00 0.00 0.00 90 1017.7
20260506160214 18 54 12.9 24.1 0.00 0.00 0.00 91 1017.6
20260506155713 18 21 8.0 25.7 0.00 0.00 0.00 91 1017.0
20260506155209 18 45 9.7 25.7 0.00 0.00 0.00 91 1016.9
20260506153311 19 51 0.0 25.7 0.00 0.00 0.00 91 1016.1
20260506152808 20 333 4.8 24.1 0.00 0.00 0.00 90 1016.5
20260506152306 20 12 4.8 14.5 0.00 0.00 0.00 90 1016.2
20260506151804 20 345 6.4 24.1 0.00 0.00 0.00 90 1015.6
20260506151300 22 27 4.8 11.3 0.00 0.00 0.00 87 1015.6
20260506150757 25 16 3.2 4.8 0.00 0.00 0.00 87 1015.8
20260506150303 25 105 0.0 1.6 0.00 0.00 0.00 87 1015.2
20260506145751 25 113 0.0 4.8 0.00 0.00 0.00 88 1015.3
20260506145247 25 111 0.0 6.4 0.00 0.00 0.00 88 1014.8
20260506144745 25 144 1.6 4.8 0.00 0.00 0.00 87 1014.7
20260506144242 25 138 0.0 4.8 0.00 0.00 0.00 88 1014.6
20260506143739 25 131 6.4 8.0 0.00 0.00 0.00 88 1014.3
20260506143237 25 150 3.2 8.0 0.00 0.00 0.00 88 1014.5
20260506142735 25 160 0.0 3.2 0.00 0.00 0.00 88 1014.3
20260506142233 25 161 0.0 9.7 0.00 0.00 0.00 88 1014.2
20260506141731 25 139 0.0 4.8 0.00 0.00 0.00 88 1013.9
20260506141229 25 135 4.8 4.8 0.00 0.00 0.00 89 1013.9
20260506140726 25 114 3.2 8.0 0.00 0.00 0.00 89 1014.0
20260506140223 25 146 4.8 4.8 0.00 0.00 0.00 90 1014.2
20260506135719 25 193 0.0 4.8 0.00 0.00 0.00 91 1014.2
20260506135216 25 165 1.6 3.2 0.00 0.00 0.00 91 1014.4
20260506134713 24 150 0.0 4.8 0.00 0.00 0.00 92 1014.1
20260506134209 24 97 0.0 6.4 0.00 0.00 0.00 92 1013.7
20260506133706 24 98 4.8 6.4 0.00 0.00 0.00 92 1013.7
20260506133203 24 148 6.4 8.0 0.00 0.00 0.00 92 1013.8
20260506132700 24 98 0.0 4.8 0.00 0.00 0.00 93 1013.7
20260506132157 23 118 4.8 6.4 0.00 0.00 0.00 93 1013.7
20260506131655 24 153 0.0 6.4 0.00 0.00 0.00 93 1013.7
20260506131150 24 150 0.0 6.4 0.00 0.00 0.00 93 1013.7
20260506130647 23 94 3.2 4.8 0.00 0.00 0.00 94 1013.4
20260506130145 23 126 0.0 6.4 0.00 0.00 0.00 94 1013.4
20260506125643 23 135 0.0 8.0 0.00 0.00 0.00 94 1013.3
20260506125140 23 108 0.0 8.0 0.00 0.00 0.00 94 1013.6
20260506124638 23 142 0.0 6.4 0.00 0.00 0.00 95 1013.1
20260506124136 23 111 3.2 3.2 0.00 0.00 0.00 95 1013.1
20260506123633 23 108 0.0 4.8 0.00 0.00 0.00 95 1013.1
20260506123132 23 109 3.2 4.8 0.00 0.00 0.00 95 1013.3
20260506122628 23 116 0.0 4.8 0.00 0.00 0.00 95 1013.3
20260506122126 23 125 1.6 1.6 0.00 0.00 0.00 95 1013.1
20260506121623 23 150 3.2 4.8 0.00 0.00 0.00 95 1013.2
20260506121119 23 95 3.2 4.8 0.00 0.00 0.00 95 1013.2
20260506120618 23 119 0.0 1.6 0.00 0.00 0.00 95 1013.2
20260506120115 23 105 0.0 1.6 0.00 0.00 0.00 95 1013.2
20260506115613 23 105 0.0 0.0 0.00 0.00 0.00 95 1013.3
20260506115111 23 122 3.2 3.2 0.00 0.00 0.00 94 1013.3
20260506114608 23 113 0.0 3.2 0.00 0.00 0.00 94 1013.0
20260506114106 23 114 3.2 3.2 0.00 0.00 0.00 94 1013.0
20260506113604 23 110 0.0 3.2 0.00 0.00 0.00 94 1013.1
20260506113101 23 105 1.6 1.6 0.00 0.00 0.00 94 1013.3
20260506112557 23 90 0.0 0.0 0.00 0.00 0.00 94 1013.4
20260506112055 23 90 0.0 0.0 0.00 0.00 0.00 94 1013.3
20260506111553 23 90 0.0 1.6 0.00 0.00 0.00 94 1013.1
20260506111049 23 105 0.0 0.0 0.00 0.00 0.00 94 1013.2
20260506110547 23 83 0.0 0.0 0.00 0.00 0.00 94 1013.3
20260506110044 23 98 0.0 0.0 0.00 0.00 0.00 93 1013.1
20260506105540 23 105 0.0 0.0 0.00 0.00 0.00 93 1013.1
20260506105038 23 110 0.0 0.0 0.00 0.00 0.00 93 1013.0
20260506104536 23 110 0.0 3.2 0.00 0.00 0.00 93 1012.9
20260506104033 23 119 0.0 3.2 0.00 0.00 0.00 93 1013.0
20260506103530 23 147 3.2 6.4 0.00 0.00 0.00 93 1013.1
20260506103027 23 98 0.0 1.6 0.00 0.00 0.00 93 1012.9
20260506102525 23 113 0.0 3.2 0.00 0.00 0.00 93 1012.7
20260506102022 23 105 0.0 1.6 0.00 0.00 0.00 93 1012.8
20260506101519 23 156 0.0 0.0 0.00 0.00 0.00 93 1012.9
20260506101016 23 119 0.0 4.8 0.00 0.00 0.00 93 1012.6
20260506100514 23 256 0.0 3.2 0.00 0.00 0.00 92 1012.6
20260506100012 23 125 0.0 0.0 0.00 0.00 0.00 93 1012.5
20260506095511 23 147 0.0 3.2 0.00 0.00 0.00 92 1012.5
20260506095006 23 119 0.0 1.6 0.00 0.00 0.00 92 1012.4
20260506094505 23 188 1.6 1.6 0.00 0.00 0.00 92 1012.5
20260506094002 23 116 0.0 1.6 0.00 0.00 0.00 92 1012.4
20260506093500 23 180 0.0 1.6 0.00 0.00 0.00 92 1012.1
20260506092957 23 84 1.6 6.4 0.00 0.00 0.00 92 1012.3
20260506092455 23 171 0.0 4.8 0.00 0.00 0.00 92 1012.1
20260506091951 23 235 0.0 3.2 0.00 0.00 0.00 92 1012.0
20260506091450 23 216 0.0 1.6 0.00 0.00 0.00 92 1012.0
20260506090947 23 164 0.0 3.2 0.00 0.00 0.00 93 1012.4
20260506090445 23 116 0.0 1.6 0.00 0.00 0.00 93 1012.2
20260506085940 23 113 0.0 4.8 0.00 0.00 0.00 93 1012.0
20260506085438 23 159 0.0 6.4 0.00 0.00 0.00 92 1012.0
20260506084934 23 193 0.0 4.8 0.00 0.00 0.00 92 1012.0
20260506084431 23 180 0.0 3.2 0.00 0.00 0.00 92 1012.1
20260506083927 23 241 0.0 3.2 0.00 0.00 0.00 92 1011.9
20260506083424 23 193 0.0 1.6 0.00 0.00 0.00 92 1011.8
20260506082922 23 222 0.0 3.2 0.00 0.00 0.00 92 1012.1
20260506082419 23 247 0.0 8.0 0.00 0.00 0.00 92 1012.1
20260506081914 23 164 0.0 3.2 0.00 0.00 0.00 92 1012.1
20260506081413 23 180 0.0 4.8 0.00 0.00 0.00 92 1012.2
20260506080910 23 193 0.0 3.2 0.00 0.00 0.00 92 1011.9
20260506080406 23 126 3.2 4.8 0.00 0.00 0.00 92 1012.0
20260506073350 23 142 3.2 8.0 0.00 0.00 0.00 91 1012.2
20260506072847 23 90 0.0 8.0 0.00 0.00 0.00 91 1012.3
20260506072345 23 164 3.2 4.8 0.00 0.00 0.00 91 1012.2
20260506071843 23 122 3.2 6.4 0.00 0.00 0.00 91 1012.4
20260506071341 24 200 3.2 8.0 0.00 0.00 0.00 91 1012.4
20260506070837 24 190 3.2 11.3 0.00 0.00 0.00 91 1012.4
20260506070334 24 162 0.0 9.7 0.00 0.00 0.00 91 1012.3
20260506062311 23 195 1.6 4.8 0.00 0.00 0.00 92 1012.5
20260506061807 23 171 0.0 6.4 0.00 0.00 0.00 92 1012.3
20260506061304 23 150 0.0 4.8 0.00 0.00 0.00 92 1012.4
20260506060802 23 116 6.4 6.4 0.00 0.00 0.00 92 1012.4
20260506060300 23 124 3.2 4.8 0.00 0.00 0.00 92 1012.5
20260506051231 24 135 4.8 11.3 0.00 0.00 0.00 91 1012.4
20260506050730 24 180 3.2 11.3 0.00 0.00 0.00 91 1012.5
20260506050227 23 204 3.2 11.3 0.00 0.00 0.00 91 1012.5
20260506044717 24 95 0.0 8.0 0.00 0.00 0.00 92 1012.3
20260506044215 24 180 3.2 8.0 0.00 0.00 0.00 92 1012.3
20260506043712 24 187 0.0 6.4 0.00 0.00 0.00 92 1012.3
20260506043210 24 140 6.4 6.4 0.00 0.00 0.00 92 1012.4
20260506042708 24 167 0.0 6.4 0.00 0.00 0.00 92 1012.5
20260506042206 24 160 4.8 4.8 0.00 0.00 0.00 91 1012.5
20260506041704 24 125 0.0 8.0 0.00 0.00 0.00 91 1012.4
20260506041201 24 122 3.2 11.3 0.00 0.00 0.00 91 1012.3
20260506040658 24 147 3.2 6.4 0.00 0.00 0.00 91 1012.1
20260506040155 24 112 3.2 9.7 0.00 0.00 0.00 91 1012.2
20260506035652 24 216 1.6 11.3 0.00 0.00 0.00 91 1012.0
20260506035149 24 121 0.0 8.0 0.00 0.00 0.00 91 1012.2
20260506034646 24 153 0.0 6.4 0.00 0.00 0.00 91 1012.2
20260506034143 24 180 0.0 6.4 0.00 0.00 0.00 91 1011.9
20260506033640 24 150 0.0 8.0 0.00 0.00 0.00 90 1011.9
20260506033137 24 97 0.0 8.0 0.00 0.00 0.00 90 1011.9
20260506032634 25 113 0.0 8.0 0.00 0.00 0.00 90 1011.8
20260506032131 25 135 4.8 4.8 0.00 0.00 0.00 90 1012.0
20260506031628 25 123 3.2 4.8 0.00 0.00 0.00 89 1011.9
20260506031125 25 105 3.2 9.7 0.00 0.00 0.00 89 1011.9
20260506030623 25 138 3.2 4.8 0.00 0.00 0.00 88 1011.7
20260506030120 25 156 3.2 6.4 0.00 0.00 0.00 88 1011.6
20260506025617 25 104 3.2 4.8 0.00 0.00 0.00 88 1011.5
20260506025113 25 172 0.0 6.4 0.00 0.00 0.00 88 1011.5
20260506024611 25 135 0.0 0.0 0.00 0.00 0.00 88 1011.5
20260506024107 25 84 0.0 4.8 0.00 0.00 0.00 88 1011.3
20260506023603 25 125 0.0 1.6 0.00 0.00 0.00 87 1011.3
20260506023100 25 120 3.2 3.2 0.00 0.00 0.00 87 1011.3
20260506022558 25 109 0.0 3.2 0.00 0.00 0.00 87 1011.1
20260506022055 25 145 0.0 3.2 0.00 0.00 0.00 86 1011.0
20260506021553 25 156 0.0 0.0 0.00 0.00 0.00 86 1010.8
20260506021050 25 153 0.0 3.2 0.00 0.00 0.00 86 1010.8
20260506020547 25 114 0.0 6.4 0.00 0.00 0.00 85 1010.6
20260506020044 25 144 1.6 4.8 0.00 0.00 0.00 85 1010.5
20260506015542 25 113 0.0 4.8 0.00 0.00 0.00 85 1010.3
20260506015039 25 113 3.2 4.8 0.00 0.00 0.00 85 1010.2
20260506014536 25 156 3.2 6.4 0.00 0.00 0.00 85 1010.0
20260506014032 25 113 0.0 4.8 0.00 0.00 0.00 84 1010.2
20260506013531 25 147 0.0 3.2 0.00 0.00 0.00 84 1010.4
20260506013026 25 124 0.0 4.8 0.00 0.00 0.00 84 1010.2
20260506012523 26 112 0.0 3.2 0.00 0.00 0.00 83 1010.2
20260506012020 26 144 0.0 3.2 0.00 0.00 0.00 83 1010.0
20260506011517 26 138 0.0 3.2 0.00 0.00 0.00 82 1010.1
20260506011013 26 138 3.2 3.2 0.00 0.00 0.00 81 1010.2
20260506010513 26 119 0.0 1.6 0.00 0.00 0.00 80 1010.1
20260506010009 26 140 0.0 0.0 0.00 0.00 0.00 80 1010.2
20260506005506 27 125 0.0 0.0 0.00 0.00 0.00 79 1010.1
20260506005002 27 180 0.0 3.2 0.00 0.00 0.00 79 1010.0
20260506004500 27 143 0.0 4.8 0.00 0.00 0.00 79 1010.3
20260506003955 27 125 0.0 3.2 0.00 0.00 0.00 78 1010.0
20260506003452 27 164 0.0 3.2 0.00 0.00 0.00 78 1010.2
20260506002948 27 119 0.0 3.2 0.00 0.00 0.00 78 1010.0
20260506002445 27 126 0.0 3.2 0.00 0.00 0.00 77 1010.2
20260506001940 27 125 0.0 1.6 0.00 0.00 0.00 76 1010.0
20260506001437 27 116 0.0 3.2 0.00 0.00 0.00 77 1010.2
20260506000934 28 127 0.0 0.0 0.00 0.00 0.00 76 1010.2